[[{"header":{"parameterUnit":"m.s-1","parameterCategory":1,"la1":30.2991,"la2":30.254,"lo1":-89.0895,"lo2":-89.0444,"dy":0.0017,"dx":0.0017,"nx":28,"ny":28,"refTime":"2025-01-02T03:00:00:Z","depth":0,"parameterNumber":2,"parameterNumberName":"U-component_of_WINDS"},"data":[0,0,0,0,0,0,0,0,0,0,0,0,0,0,0,0,0,0,0,0,0,0,0,0,0,0,0,0,0,0,0,0,0,0,0,0,0,0,0,0,0,0,0,0,0,0,0,0,0,0,0,0,0,0,0,0,0,0,-0.3184,-0.3185,0,-0.3222,-0.3222,-0.3223,-0.3212,-0.3212,-0.3211,-0.321,-0.3251,-0.3253,-0.3255,0,0,0,0,0,0,0,0,0,0,0,0,0,-0.3105,-0.3106,-0.3184,-0.3185,-0.3185,-0.3222,-0.3222,-0.3223,-0.3212,-0.3212,-0.3211,-0.321,-0.325,-0.3253,-0.3255,0,0,0,0,0,0,0,0,0,0,0,0,0,-0.3141,-0.3107,-0.3184,-0.3184,-0.3185,-0.3222,-0.3222,-0.3223,-0.3213,-0.3212,-0.321,-0.3209,-0.325,-0.3252,-0.3255,-0.3295,0,0,-0.3263,-0.3265,0,0,0,0,0,0,0,0,-0.3139,-0.3144,-0.3184,-0.3184,-0.3185,-0.3211,-0.3209,-0.3247,-0.3213,-0.3202,-0.321,-0.3209,-0.3239,-0.3242,-0.3252,-0.3297,-0.3299,-0.3264,-0.3265,-0.3266,-0.3267,0,0,0,0,0,0,0,-0.3136,-0.3142,-0.3199,-0.3184,-0.3185,-0.3183,-0.3187,-0.3217,-0.3227,-0.3203,-0.3202,-0.3207,-0.3239,-0.325,-0.3253,-0.3299,-0.3264,-0.3266,-0.3268,-0.3269,-0.3379,-0.338,0,0,0,0,0,0,-0.3133,-0.314,-0.3198,-0.32,-0.3158,-0.3185,-0.319,-0.3204,-0.3226,-0.3228,-0.3208,-0.3206,-0.3245,-0.325,-0.3254,-0.3303,-0.3266,-0.3269,-0.3271,-0.3377,-0.3379,-0.338,0,0,0,0,0,0,-0.3131,-0.3138,-0.3196,-0.317,-0.3177,-0.3188,-0.3204,-0.3205,-0.3216,-0.323,-0.3232,-0.3217,-0.3245,-0.3251,-0.3285,-0.3304,-0.327,-0.3273,-0.3376,-0.3378,-0.338,-0.34,0,0,0,0,0,0,-0.3129,-0.3138,-0.3153,-0.317,-0.3179,-0.3226,-0.3205,-0.3207,-0.322,-0.3219,-0.3239,-0.3241,-0.3244,-0.3281,-0.3287,-0.3307,-0.3275,-0.3374,-0.3377,-0.3379,-0.3398,-0.3403,-0.3407,0,0,0,0,0,-0.3126,-0.3158,-0.3154,-0.3161,-0.3197,-0.3227,-0.3232,-0.3234,-0.3222,-0.3237,-0.3246,-0.324,-0.3301,-0.3284,-0.3292,-0.3313,-0.3373,-0.3376,-0.3379,-0.3396,-0.3402,-0.3407,0,0,0,0,0,0,-0.3143,-0.316,-0.3156,-0.3193,-0.3209,-0.3225,-0.3245,-0.324,-0.326,-0.3258,-0.3261,-0.3266,-0.3301,-0.331,-0.3292,-0.3352,-0.3335,-0.334,-0.3346,-0.3351,-0.3355,-0.3353,-0.3277,0,0,0,0,0,-0.3151,-0.3173,-0.3186,-0.3218,-0.3226,-0.3234,-0.3247,-0.3247,-0.3264,-0.3271,-0.3282,-0.3299,-0.3321,-0.3337,-0.3358,-0.3398,-0.3403,-0.3416,-0.3421,-0.3424,-0.3429,-0.3451,-0.3458,-0.339,-0.339,-0.339,0,0,-0.3168,-0.318,-0.3194,-0.3222,-0.3234,-0.3257,-0.324,-0.3265,-0.3283,-0.3275,-0.3308,-0.3317,-0.3335,-0.3373,-0.339,-0.3382,-0.3448,-0.3428,-0.3431,-0.3433,-0.3455,-0.3461,-0.3467,-0.3392,-0.3391,-0.3391,0,0,-0.3211,-0.3221,-0.3249,-0.3261,-0.3279,-0.3284,-0.3291,-0.3308,-0.3313,-0.3346,-0.334,-0.3361,-0.34,-0.3414,-0.3426,-0.3473,-0.3469,-0.348,-0.3504,-0.3525,-0.3531,-0.3535,-0.3553,-0.3559,-0.3484,-0.3484,-0.3484,0,-0.323,-0.3264,-0.3265,-0.329,-0.3303,-0.3296,-0.3325,-0.3336,-0.3361,-0.337,-0.336,-0.3409,-0.3421,-0.3461,-0.3473,-0.3482,-0.3491,-0.3478,-0.353,-0.3534,-0.3539,-0.3556,-0.3562,-0.3485,-0.3485,-0.3485,-0.3485,0,-0.3287,-0.3311,-0.3331,-0.3354,-0.3369,-0.3397,-0.3402,-0.3417,-0.3415,-0.3422,-0.3455,-0.3469,-0.3494,-0.3503,-0.3502,-0.3544,-0.3538,-0.3529,-0.3512,-0.3547,-0.3563,-0.3569,-0.3487,-0.3487,-0.3486,-0.3486,0,0,-0.3344,-0.3365,-0.3373,-0.3383,-0.3402,-0.3421,-0.3447,-0.347,-0.3484,-0.35,-0.3523,-0.3556,-0.3547,-0.3561,-0.3562,-0.358,-0.3618,-0.3569,-0.3569,-0.3578,-0.3665,-0.3673,-0.368,-0.3614,-0.3615,-0.3616,-0.3663,0,-0.3389,-0.3436,-0.3436,-0.3479,-0.3502,-0.3494,-0.3517,-0.3532,-0.3538,-0.3558,-0.3564,-0.3588,-0.3574,-0.3582,-0.3601,-0.3609,-0.3635,-0.3606,-0.3637,-0.3638,-0.3634,-0.3688,-0.3697,-0.3741,-0.367,-0.3671,-0.3671,0,-0.3449,-0.3467,-0.3512,-0.3527,-0.3536,-0.3557,-0.3578,-0.3597,-0.3613,-0.3616,-0.3631,-0.3628,-0.3656,-0.3636,-0.3675,-0.3655,-0.3667,-0.3673,-0.3675,-0.3679,-0.3658,-0.3695,-0.3755,-0.3762,-0.3681,-0.368,-0.368,0,-0.3487,-0.3522,-0.3553,-0.3562,-0.358,-0.3595,-0.3604,-0.3618,-0.3632,-0.365,-0.3659,-0.3681,-0.3693,-0.371,-0.3713,-0.3699,-0.3752,-0.3733,-0.3757,-0.3757,-0.377,-0.3769,-0.3834,-0.3775,-0.3775,-0.3775,-0.3775,0,-0.3538,-0.3567,-0.3571,-0.359,-0.3622,-0.3622,-0.3653,-0.366,-0.3673,-0.3694,-0.3689,-0.3709,-0.3712,-0.3733,-0.3736,-0.3768,-0.3773,-0.3777,-0.3777,-0.3778,-0.3778,-0.3788,-0.3785,-0.3777,-0.3776,-0.3776,-0.3776,0,-0.3587,-0.3591,-0.3625,-0.3638,-0.3643,-0.3665,-0.3677,-0.3696,-0.3701,-0.3728,-0.3734,-0.3742,-0.3766,-0.3771,-0.38,-0.3802,-0.384,-0.3837,-0.3835,-0.3835,-0.3859,-0.3857,-0.3933,-0.3944,-0.3877,-0.3878,-0.3878,0,-0.3621,-0.3642,-0.3658,-0.3671,-0.368,-0.3702,-0.3715,-0.3716,-0.3731,-0.375,-0.3767,-0.379,-0.3809,-0.3848,-0.3857,-0.3879,-0.3877,-0.3902,-0.3881,-0.3881,-0.3879,-0.3878,-0.3881,-0.3907,-0.3908,-0.3908,-0.3909,0,-0.368,-0.368,-0.37,-0.372,-0.3736,-0.3752,-0.3767,-0.3779,-0.3782,-0.3798,-0.3823,-0.3837,-0.3866,-0.389,-0.3911,-0.3921,-0.3916,-0.3915,-0.3922,-0.3924,-0.3922,-0.3924,-0.3848,-0.3914,-0.3913,-0.3913,-0.3913,-0.3913,-0.3723,-0.3742,-0.3756,-0.3778,-0.3789,-0.3803,-0.3821,-0.3828,-0.3848,-0.3871,-0.387,-0.3897,-0.3912,-0.394,-0.3951,-0.3972,-0.3964,-0.3974,-0.3977,-0.3979,-0.3982,-0.3917,-0.3976,-0.3976,-0.3976,-0.3975,-0.3975,0,-0.3783,-0.3791,-0.3811,-0.3832,-0.385,-0.3842,-0.3858,-0.3873,-0.3897,-0.3911,-0.3929,-0.3957,-0.398,-0.3989,-0.4012,-0.4027,-0.4025,-0.4033,-0.4033,-0.4035,-0.3987,-0.398,-0.4034,-0.4034,-0.4034,-0.4034,-0.4034,-0.4034,-0.3817,-0.3848,-0.385,-0.3887,-0.3895,-0.3921,-0.3931,-0.3944,-0.3955,-0.3986,-0.4005,-0.401,-0.4023,-0.4046,-0.4066,-0.4069,-0.4078,-0.4087,-0.4088,-0.4044,-0.4038,-0.4033,-0.4026,-0.4088,-0.4088,-0.4134,-0.4135,-0.4135]},{"header":{"parameterUnit":"m.s-1","parameterCategory":1,"la1":30.2991,"la2":30.254,"lo1":-89.0895,"lo2":-89.0444,"dy":0.0017,"dx":0.0017,"nx":28,"ny":28,"refTime":"2025-01-02T03:00:00:Z","depth":0,"parameterNumber":3,"parameterNumberName":"V-component_of_WINDS"},"data":[0,0,0,0,0,0,0,0,0,0,0,0,0,0,0,0,0,0,0,0,0,0,0,0,0,0,0,0,0,0,0,0,0,0,0,0,0,0,0,0,0,0,0,0,0,0,0,0,0,0,0,0,0,0,0,0,0,0,-4.119,-4.1192,0,-4.1337,-4.1338,-4.134,-4.1296,-4.1293,-4.129,-4.1287,-4.1432,-4.1439,-4.1446,0,0,0,0,0,0,0,0,0,0,0,0,0,-4.0867,-4.0873,-4.119,-4.1192,-4.1194,-4.1337,-4.1339,-4.1341,-4.1297,-4.1293,-4.129,-4.1286,-4.143,-4.1438,-4.1446,0,0,0,0,0,0,0,0,0,0,0,0,0,-4.101,-4.0876,-4.1189,-4.1189,-4.1191,-4.1336,-4.1339,-4.1341,-4.1298,-4.1293,-4.1289,-4.1284,-4.1428,-4.1437,-4.1447,-4.16,0,0,-4.1478,-4.1482,0,0,0,0,0,0,0,0,-4.1002,-4.1022,-4.1187,-4.1189,-4.1191,-4.1294,-4.1278,-4.1428,-4.1299,-4.1257,-4.1287,-4.1282,-4.139,-4.1402,-4.144,-4.1607,-4.1613,-4.1479,-4.1485,-4.1489,-4.1492,0,0,0,0,0,0,0,-4.0992,-4.1015,-4.1248,-4.119,-4.1192,-4.118,-4.1195,-4.1306,-4.1347,-4.126,-4.1257,-4.1276,-4.139,-4.143,-4.1443,-4.1616,-4.1479,-4.1487,-4.1494,-4.1498,-4.1917,-4.1922,0,0,0,0,0,0,-4.0982,-4.1007,-4.1243,-4.1252,-4.1084,-4.119,-4.1207,-4.1265,-4.1346,-4.1353,-4.1279,-4.1273,-4.1415,-4.1431,-4.1448,-4.1634,-4.1489,-4.1499,-4.1504,-4.1912,-4.1918,-4.1923,0,0,0,0,0,0,-4.0975,-4.1003,-4.1237,-4.1129,-4.1158,-4.12,-4.1266,-4.1271,-4.1311,-4.136,-4.1367,-4.1314,-4.1412,-4.1434,-4.1563,-4.1638,-4.1503,-4.1512,-4.1906,-4.1914,-4.1921,-4.2005,0,0,0,0,0,0,-4.0966,-4.1001,-4.106,-4.1131,-4.1164,-4.1352,-4.1271,-4.1277,-4.1329,-4.1322,-4.1394,-4.1401,-4.141,-4.1549,-4.1573,-4.1649,-4.152,-4.1899,-4.1909,-4.1918,-4.1996,-4.2015,-4.2031,0,0,0,0,0,-4.0954,-4.1077,-4.1064,-4.1092,-4.124,-4.1356,-4.1375,-4.1385,-4.1335,-4.1395,-4.1427,-4.1399,-4.1626,-4.1562,-4.159,-4.167,-4.1895,-4.1906,-4.1918,-4.1988,-4.2011,-4.2031,0,0,0,0,0,0,-4.1012,-4.1086,-4.1072,-4.1222,-4.1283,-4.1349,-4.1424,-4.1408,-4.1484,-4.1474,-4.1481,-4.1497,-4.1631,-4.1663,-4.1591,-4.1823,-4.1753,-4.177,-4.1797,-4.1819,-4.1836,-4.1826,-4.1528,0,0,0,0,0,-4.1042,-4.1132,-4.1192,-4.1318,-4.135,-4.1382,-4.1433,-4.1435,-4.1499,-4.1524,-4.1565,-4.1626,-4.1711,-4.1767,-4.1847,-4.2,-4.2015,-4.2069,-4.2086,-4.21,-4.2116,-4.22,-4.2224,-4.1961,-4.1961,-4.1961,0,0,-4.1105,-4.1157,-4.1213,-4.1331,-4.1379,-4.1471,-4.1404,-4.1504,-4.1572,-4.1538,-4.1664,-4.1697,-4.1765,-4.1908,-4.1972,-4.1939,-4.2192,-4.2115,-4.2126,-4.2134,-4.2214,-4.2239,-4.2261,-4.1969,-4.1968,-4.1966,0,0,-4.1267,-4.1316,-4.1427,-4.1477,-4.1552,-4.1573,-4.1599,-4.1668,-4.1689,-4.1816,-4.1793,-4.1873,-4.2019,-4.2069,-4.2114,-4.2297,-4.2275,-4.2323,-4.2415,-4.2496,-4.2517,-4.2536,-4.2602,-4.2625,-4.2338,-4.2338,-4.2338,0,-4.1336,-4.1476,-4.1485,-4.1588,-4.1641,-4.1617,-4.1729,-4.1776,-4.1873,-4.1909,-4.187,-4.2054,-4.2098,-4.2253,-4.2298,-4.2335,-4.2365,-4.2315,-4.2514,-4.2532,-4.255,-4.2613,-4.2637,-4.2344,-4.2343,-4.2342,-4.2342,0,-4.1556,-4.1654,-4.1734,-4.1831,-4.1892,-4.1999,-4.2024,-4.2084,-4.2081,-4.2106,-4.2236,-4.2288,-4.238,-4.2417,-4.2414,-4.2571,-4.2548,-4.2512,-4.2441,-4.258,-4.2639,-4.2663,-4.2351,-4.2349,-4.2348,-4.2346,0,0,-4.1758,-4.186,-4.189,-4.1934,-4.2015,-4.209,-4.2195,-4.2287,-4.2339,-4.2406,-4.2495,-4.262,-4.2588,-4.2638,-4.2641,-4.2713,-4.2855,-4.2667,-4.2669,-4.2701,-4.3033,-4.306,-4.3088,-4.2841,-4.2846,-4.2849,-4.3027,0,-4.1928,-4.2116,-4.2129,-4.2298,-4.2388,-4.2368,-4.246,-4.2519,-4.2545,-4.2624,-4.2651,-4.2741,-4.2691,-4.2721,-4.2792,-4.2823,-4.2922,-4.281,-4.2922,-4.2926,-4.2907,-4.3119,-4.3148,-4.3314,-4.305,-4.3054,-4.3057,0,-4.2151,-4.2228,-4.2408,-4.2478,-4.2516,-4.2599,-4.2685,-4.2761,-4.2827,-4.2841,-4.2899,-4.2892,-4.2999,-4.2925,-4.3073,-4.2997,-4.3043,-4.3066,-4.3072,-4.3084,-4.3001,-4.3136,-4.3366,-4.3392,-4.3094,-4.3091,-4.3088,0,-4.2281,-4.243,-4.2557,-4.2595,-4.268,-4.2738,-4.2776,-4.2838,-4.2893,-4.2967,-4.3003,-4.3088,-4.3135,-4.32,-4.3216,-4.316,-4.3364,-4.3291,-4.3377,-4.3377,-4.3421,-4.3419,-4.3663,-4.345,-4.345,-4.345,-4.3449,0,-4.247,-4.2581,-4.2617,-4.2695,-4.2819,-4.2831,-4.2953,-4.2986,-4.3042,-4.3125,-4.3111,-4.3189,-4.3205,-4.3286,-4.3299,-4.342,-4.344,-4.3454,-4.3456,-4.3456,-4.3454,-4.3487,-4.3476,-4.3456,-4.3455,-4.3453,-4.3452,0,-4.2636,-4.2665,-4.2802,-4.2872,-4.2892,-4.298,-4.3039,-4.3114,-4.3139,-4.3245,-4.327,-4.3309,-4.3404,-4.3426,-4.3538,-4.3546,-4.369,-4.368,-4.3668,-4.3668,-4.3754,-4.3746,-4.4028,-4.4066,-4.3828,-4.383,-4.3832,0,-4.2755,-4.2841,-4.292,-4.2977,-4.3018,-4.3108,-4.3165,-4.318,-4.324,-4.3323,-4.3387,-4.3481,-4.3557,-4.371,-4.3747,-4.3832,-4.3825,-4.3918,-4.3838,-4.3835,-4.3828,-4.3823,-4.3831,-4.3934,-4.3936,-4.3938,-4.394,0,-4.2963,-4.2974,-4.3057,-4.3147,-4.3216,-4.3286,-4.3353,-4.3399,-4.3424,-4.3491,-4.359,-4.3649,-4.3765,-4.3859,-4.3945,-4.3982,-4.3965,-4.3965,-4.399,-4.3991,-4.3981,-4.3988,-4.3711,-4.3958,-4.3957,-4.3955,-4.3954,-4.3953,-4.311,-4.3186,-4.3254,-4.3348,-4.3401,-4.3464,-4.3539,-4.3574,-4.3657,-4.3755,-4.3758,-4.3865,-4.393,-4.4045,-4.4087,-4.417,-4.4141,-4.4177,-4.4186,-4.4195,-4.4203,-4.3967,-4.4186,-4.4185,-4.4185,-4.4184,-4.4184,0,-4.3318,-4.3362,-4.3448,-4.3544,-4.3618,-4.3599,-4.3672,-4.3735,-4.383,-4.3893,-4.3969,-4.4082,-4.4173,-4.4218,-4.4308,-4.4365,-4.436,-4.4388,-4.4384,-4.4393,-4.4223,-4.4194,-4.4391,-4.4391,-4.4391,-4.4391,-4.4391,-4.4391,-4.3435,-4.3562,-4.3581,-4.3734,-4.3776,-4.3884,-4.3928,-4.3986,-4.4036,-4.4165,-4.4241,-4.4271,-4.4326,-4.442,-4.4502,-4.4513,-4.4546,-4.4579,-4.4586,-4.4426,-4.4405,-4.4385,-4.4357,-4.4586,-4.4586,-4.4749,-4.4751,-4.4752]}]]